TimeCDT,TemperatureF,Dew PointF,Humidity,Sea Level PressureIn,VisibilityMPH,Wind Direction,Wind SpeedMPH,Gust SpeedMPH,PrecipitationIn,Events,Conditions,WindDirDegrees,DateUTC
12:53 AM,64.9,62.1,90,30.09,10.0,Calm,Calm,-,N/A,,Clear,0,2013-08-23 05:53:00
1:53 AM,62.1,60.1,93,30.09,10.0,NE,3.5,-,N/A,,Clear,40,2013-08-23 06:53:00
2:53 AM,63.0,62.1,97,30.09,10.0,Calm,Calm,-,N/A,,Clear,0,2013-08-23 07:53:00
3:53 AM,62.1,60.1,93,30.10,10.0,Calm,Calm,-,N/A,,Clear,0,2013-08-23 08:53:00
4:53 AM,62.1,60.1,93,30.10,10.0,Calm,Calm,-,N/A,,Clear,0,2013-08-23 09:53:00
5:00 AM,60.8,59.0,94,30.13,10.0,Calm,Calm,-,N/A,,Scattered Clouds,0,2013-08-23 10:00:00
5:09 AM,62.6,60.8,94,30.13,10.0,ESE,3.5,-,N/A,,Mostly Cloudy,120,2013-08-23 10:09:00
5:21 AM,62.6,60.8,94,30.14,1.8,ESE,3.5,-,N/A,,Overcast,110,2013-08-23 10:21:00
5:31 AM,62.6,62.6,100,30.14,0.5,Calm,Calm,-,N/A,Fog,Fog,0,2013-08-23 10:31:00
5:42 AM,62.6,60.8,94,30.14,1.2,ESE,4.6,-,N/A,,Overcast,120,2013-08-23 10:42:00
5:53 AM,62.1,61.0,96,30.12,0.8,ESE,4.6,-,N/A,,Mist,120,2013-08-23 10:53:00
6:15 AM,60.8,60.8,100,30.15,2.0,East,4.6,-,N/A,,Overcast,100,2013-08-23 11:15:00
6:23 AM,62.6,60.8,94,30.15,8.0,East,3.5,-,N/A,,Overcast,90,2013-08-23 11:23:00
6:38 AM,62.6,62.6,100,30.15,1.8,Calm,Calm,-,N/A,,Overcast,0,2013-08-23 11:38:00
6:49 AM,62.6,60.8,94,30.15,3.0,SE,3.5,-,N/A,,Overcast,130,2013-08-23 11:49:00
6:53 AM,62.1,61.0,96,30.13,3.0,SE,3.5,-,N/A,,Overcast,130,2013-08-23 11:53:00
7:53 AM,63.0,62.1,97,30.14,5.0,East,3.5,-,N/A,,Overcast,100,2013-08-23 12:53:00
8:03 AM,64.4,62.6,94,30.16,2.0,East,3.5,-,N/A,,Overcast,100,2013-08-23 13:03:00
8:12 AM,64.4,62.6,94,30.16,6.0,ESE,3.5,-,N/A,,Overcast,120,2013-08-23 13:12:00
8:53 AM,66.0,63.0,90,30.15,9.0,ESE,4.6,-,N/A,,Overcast,120,2013-08-23 13:53:00
9:33 AM,69.8,64.4,83,30.17,10.0,ESE,3.5,-,N/A,,Overcast,110,2013-08-23 14:33:00
9:53 AM,71.1,64.9,81,30.15,10.0,SSE,3.5,-,N/A,,Overcast,160,2013-08-23 14:53:00
10:10 AM,71.6,64.4,78,30.17,10.0,South,8.1,-,N/A,,Overcast,180,2013-08-23 15:10:00
10:53 AM,73.0,66.0,79,30.15,10.0,South,8.1,-,N/A,,Overcast,190,2013-08-23 15:53:00
11:53 AM,75.0,66.0,73,30.15,10.0,South,11.5,-,N/A,,Overcast,190,2013-08-23 16:53:00
12:19 PM,75.2,66.2,73,30.17,10.0,SSW,9.2,-,N/A,,Mostly Cloudy,200,2013-08-23 17:19:00
12:53 PM,78.1,66.0,66,30.13,10.0,Variable,6.9,-,N/A,,Mostly Cloudy,0,2013-08-23 17:53:00
1:14 PM,78.8,66.2,65,30.15,10.0,South,5.8,-,N/A,,Scattered Clouds,190,2013-08-23 18:14:00
1:53 PM,82.9,64.0,53,30.12,10.0,SSW,11.5,-,N/A,,Clear,200,2013-08-23 18:53:00
2:53 PM,82.9,63.0,51,30.10,10.0,SSW,12.7,19.6,N/A,,Clear,200,2013-08-23 19:53:00
3:53 PM,84.0,63.0,49,30.09,10.0,South,9.2,-,N/A,,Clear,180,2013-08-23 20:53:00
4:53 PM,84.0,62.1,47,30.09,10.0,South,11.5,-,N/A,,Clear,190,2013-08-23 21:53:00
5:53 PM,82.9,62.1,49,30.08,10.0,South,11.5,-,N/A,,Clear,180,2013-08-23 22:53:00
6:53 PM,81.0,60.1,49,30.07,10.0,South,9.2,-,N/A,,Clear,190,2013-08-23 23:53:00
7:53 PM,77.0,59.0,54,30.08,10.0,South,3.5,-,N/A,,Clear,170,2013-08-24 00:53:00
8:53 PM,72.0,62.1,71,30.09,10.0,ESE,4.6,-,N/A,,Clear,120,2013-08-24 01:53:00
9:53 PM,70.0,62.1,76,30.09,10.0,ESE,5.8,-,N/A,,Clear,110,2013-08-24 02:53:00
10:53 PM,68.0,61.0,78,30.09,10.0,ESE,6.9,-,N/A,,Clear,110,2013-08-24 03:53:00
11:53 PM,66.9,61.0,81,30.10,10.0,ESE,3.5,-,N/A,,Clear,120,2013-08-24 04:53:00